Home > Weather > Vienna > Past weeks

Flag for Austria Past Weather in Vienna, Vienna, Austria — Yesterday and Last 2 Weeks

Now
68 °F

Passing clouds.


Feels Like: 68 °F
Forecast: 55 / 83 °F
Wind: 6 mph from Northwest

Location: Wien / Hohe Warte

Current Time: Jun 28, 2016 at 10:03:04 AM

Latest Report: Jun 28, 2016 at 9:00 AM


Visibility: 25 mi

Pressure: 30.06 "Hg

Humidity: 58%

Dew Point: 53 °F

Location of ViennaLocation

Past Weather in Vienna — Graph

°F

Vienna Temperature Yesterday

Maximum temperature yesterday: 68 °F (at 5:00 PM)
Minimum temperature yesterday: 60 °F (at 10:00 AM)
Average temperature yesterday: 64 °F

High & Low Weather Summary for the Past Weeks

 TemperatureHumidityPressure
High91 °F (Jun 24, 5:00 PM)96% (Jun 21, 4:00 AM)30.27 "Hg (Jun 21, 4:00 AM)
Low56 °F (Jun 21, 5:00 AM)37% (Jun 23, 6:00 PM)29.47 "Hg (Jun 17, 5:00 AM)
Average69 °F70%29.93 "Hg
* Reported Jun 13 8:00 AM — Jun 28 8:00 AM, Vienna, Weather by CustomWeather, © 2016

Note: Actual official high and low records may vary slightly from our data, if they occured in-between our weather recording intervals... More about our weather records

Advertising

Vienna Weather History for the Previous 24 Hours

Scroll right to see more
 ConditionsComfort  
Time TempWeatherWind HumidityBarometerVisibility
8:00 AM
Tue, Jun 28
66 °FPassing clouds.6 mph60%30.07 "Hg25 mi
7:00 AM63 °FPassing clouds.7 mph64%30.08 "Hg28 mi
6:00 AM61 °FPassing clouds.6 mph67%30.08 "Hg28 mi
5:00 AM61 °FCool.7 mph69%30.07 "HgN/A
4:00 AM61 °FPassing clouds.6 mph73%30.07 "Hg19 mi
3:00 AM58 °FCool.2 mph83%30.08 "HgN/A
2:00 AM61 °FPassing clouds.5 mph73%30.07 "Hg16 mi
1:00 AM61 °FCool.5 mph73%30.08 "HgN/A
12:00 AM62 °FCool.5 mph69%30.07 "HgN/A
11:00 PM
Mon, Jun 27
64 °FPassing clouds.6 mph70%30.07 "Hg19 mi
10:00 PM64 °FPassing clouds.5 mph72%30.06 "Hg19 mi
9:00 PM65 °FMild.6 mph67%30.05 "HgN/A
8:00 PM65 °FOvercast.6 mph72%30.05 "Hg37 mi
7:00 PM66 °FOvercast.6 mph74%30.05 "Hg37 mi
6:00 PM67 °FOvercast.6 mph66%30.05 "Hg31 mi
5:00 PM68 °FOvercast.6 mph65%30.06 "Hg31 mi
4:00 PM66 °FPartly sunny.8 mph71%30.05 "Hg31 mi
3:00 PM65 °FOvercast.7 mph78%30.06 "Hg25 mi
2:00 PM64 °FOvercast.7 mph81%30.08 "Hg19 mi
1:00 PM61 °FLight rain. Overcast.7 mph88%30.09 "Hg5 mi
12:00 PM62 °FLight rain. Overcast.8 mph85%30.08 "Hg31 mi
11:00 AM62 °FOvercast.6 mph87%30.07 "Hg25 mi
10:00 AM60 °FRain. Light fog.5 mph92%30.07 "Hg6 mi
Weather by CustomWeather, © 2016

See weather overviewHow to use our weather pages